When you browse on this site, cookies collect data to enhance your experience and personalize the content and advertising you see.
Visit our Privacy Policy to learn more. By continuing to use the site, you agree to this use of cookies and data.
  • In United Kingdom
  • List of Countries
  • For 7 days
  • Water Temperature
  • Satellite Maps
  • Weather Map
  • Weather Widgets
  • user-avatar
    Login

    Hourly Weather Megri

    Today, 24 March, Sunday

    Time Temperature Precipitation Wind Pressure Humidity
    00:00 +2°C° 0 mm 2 mps 617 mmHg 58%
    01:00 +2°C° 0 mm 2 mps 616 mmHg 60%
    02:00 +2°C° 0 mm 2 mps 616 mmHg 63%
    03:00 +1°C° 0 mm 3 mps 616 mmHg 64%
    04:00 +1°C° 0 mm 3 mps 616 mmHg 68%
    05:00 0°C° 0 mm 3 mps 615 mmHg 72%
    06:00 +1°C° 0 mm 2 mps 615 mmHg 76%
    07:00 +2°C° 0 mm 2 mps 615 mmHg 73%
    08:00 +4°C° 0 mm 2 mps 615 mmHg 71%
    09:00 +5°C° 0 mm 2 mps 616 mmHg 68%
    10:00 +6°C° 0 mm 2 mps 615 mmHg 64%
    11:00 +7°C° 0 mm 2 mps 615 mmHg 61%
    12:00 +7°C° 0 mm 3 mps 615 mmHg 57%
    13:00 +8°C° 0.1 mm 3 mps 615 mmHg 56%
    14:00 +8°C° 0.1 mm 3 mps 614 mmHg 55%
    15:00 +7°C° 0.1 mm 4 mps 614 mmHg 54%
    16:00 +6°C° 0.7 mm 4 mps 614 mmHg 60%
    17:00 +5°C° 0.7 mm 3 mps 614 mmHg 65%
    18:00 +4°C° 0.7 mm 3 mps 614 mmHg 71%
    19:00 +4°C° 0.3 mm 3 mps 614 mmHg 75%
    20:00 +3°C° 0.3 mm 3 mps 614 mmHg 78%
    21:00 +3°C° 0.3 mm 4 mps 613 mmHg 82%
    22:00 +3°C° 1.1 mm 4 mps 614 mmHg 83%
    23:00 +2°C° 1.1 mm 3 mps 614 mmHg 84%

    Tomorrow, 25 March, Monday

    Time Temperature Precipitation Wind Pressure Humidity
    00:00 +2°C° 1.1 mm 3 mps 614 mmHg 86%
    01:00 +1°C° 1 mm 4 mps 614 mmHg 86%
    02:00 0°C° 1 mm 4 mps 613 mmHg 87%
    03:00 0°C° 1 mm 4 mps 613 mmHg 87%
    04:00 0°C° 1.2 mm 4 mps 613 mmHg 87%
    05:00 -1°C° 1.2 mm 4 mps 613 mmHg 88%
    06:00 -1°C° 1.2 mm 4 mps 613 mmHg 88%
    07:00 -1°C° 1.3 mm 5 mps 613 mmHg 87%
    08:00 -1°C° 1.3 mm 5 mps 613 mmHg 87%
    09:00 -2°C° 1.3 mm 6 mps 613 mmHg 86%
    10:00 -2°C° 1.1 mm 6 mps 613 mmHg 86%
    11:00 -2°C° 1.1 mm 6 mps 613 mmHg 86%
    12:00 -2°C° 1.1 mm 6 mps 613 mmHg 86%
    13:00 -1°C° 0.4 mm 5 mps 613 mmHg 85%
    14:00 -1°C° 0.4 mm 5 mps 613 mmHg 84%
    15:00 -1°C° 0.4 mm 5 mps 613 mmHg 83%
    16:00 -2°C° 0.3 mm 5 mps 613 mmHg 84%
    17:00 -2°C° 0.3 mm 4 mps 613 mmHg 85%
    18:00 -3°C° 0.3 mm 4 mps 613 mmHg 85%
    19:00 -3°C° 0.5 mm 4 mps 614 mmHg 86%
    20:00 -3°C° 0.5 mm 4 mps 614 mmHg 87%
    21:00 -4°C° 0.5 mm 3 mps 615 mmHg 87%
    22:00 -4°C° 0.1 mm 3 mps 615 mmHg 87%
    23:00 -4°C° 0.1 mm 3 mps 615 mmHg 86%

    Day after tomorrow, 26 March, Tuesday

    Time Temperature Precipitation Wind Pressure Humidity
    00:00 -4°C° 0.1 mm 3 mps 615 mmHg 86%
    01:00 -2°C° 0.3 mm 3 mps 616 mmHg 86%
    02:00 -2°C° 0.3 mm 2 mps 616 mmHg 87%
    03:00 -2°C° 0.3 mm 2 mps 616 mmHg 87%
    04:00 -2°C° 0.5 mm 2 mps 616 mmHg 87%
    05:00 -2°C° 0.5 mm 2 mps 616 mmHg 87%
    06:00 -2°C° 0.5 mm 2 mps 617 mmHg 87%
    07:00 -1°C° 0.6 mm 2 mps 617 mmHg 87%
    08:00 +1°C° 0.6 mm 2 mps 618 mmHg 86%
    09:00 +2°C° 0.6 mm 2 mps 618 mmHg 85%
    10:00 +2°C° 0.1 mm 2 mps 618 mmHg 85%
    11:00 +3°C° 0.1 mm 2 mps 618 mmHg 84%
    12:00 +4°C° 0.1 mm 2 mps 618 mmHg 83%
    13:00 +4°C° 0 mm 2 mps 618 mmHg 82%
    14:00 +4°C° 0 mm 2 mps 617 mmHg 81%
    15:00 +4°C° 0 mm 3 mps 617 mmHg 80%
    16:00 +3°C° 0 mm 3 mps 617 mmHg 81%
    17:00 +4°C° 0 mm 2 mps 617 mmHg 82%
    18:00 +3°C° 0 mm 2 mps 617 mmHg 83%
    19:00 +3°C° 0 mm 2 mps 617 mmHg 84%
    20:00 +2°C° 0 mm 2 mps 617 mmHg 86%
    21:00 +2°C° 0 mm 2 mps 617 mmHg 87%
    22:00 +1°C° 0 mm 2 mps 617 mmHg 87%
    23:00 +1°C° 0 mm 2 mps 617 mmHg 87%

    27 March, Wednesday

    Time Temperature Precipitation Wind Pressure Humidity
    00:00 +1°C° 0 mm 2 mps 616 mmHg 87%
    01:00 +1°C° 0 mm 1 mps 616 mmHg 86%
    02:00 +1°C° 0 mm 1 mps 616 mmHg 85%
    03:00 +1°C° 0 mm 1 mps 616 mmHg 84%
    04:00 +1°C° 0 mm 1 mps 616 mmHg 82%
    05:00 +1°C° 0 mm 1 mps 616 mmHg 81%
    06:00 +1°C° 0 mm 1 mps 617 mmHg 80%
    07:00 +2°C° 0 mm 1 mps 617 mmHg 78%
    08:00 +2°C° 0 mm 2 mps 618 mmHg 77%
    09:00 +4°C° 0 mm 2 mps 618 mmHg 76%
    10:00 +3°C° 0 mm 3 mps 618 mmHg 75%
    11:00 +4°C° 0 mm 3 mps 618 mmHg 75%
    12:00 +5°C° 0 mm 3 mps 618 mmHg 74%
    13:00 +5°C° 0 mm 3 mps 618 mmHg 73%
    14:00 +5°C° 0 mm 3 mps 618 mmHg 71%
    15:00 +7°C° 0 mm 3 mps 618 mmHg 70%
    16:00 +5°C° 0 mm 3 mps 618 mmHg 67%
    17:00 +5°C° 0 mm 3 mps 618 mmHg 64%
    18:00 +6°C° 0 mm 2 mps 619 mmHg 60%
    19:00 +5°C° 0 mm 2 mps 619 mmHg 63%
    20:00 +5°C° 0 mm 1 mps 619 mmHg 65%
    21:00 +4°C° 0 mm 1 mps 619 mmHg 67%
    22:00 +3°C° 0 mm 1 mps 619 mmHg 69%
    23:00 +3°C° 0 mm 1 mps 619 mmHg 70%

    28 March, Thursday

    Time Temperature Precipitation Wind Pressure Humidity
    00:00 +3°C° 0 mm 1 mps 619 mmHg 72%
    01:00 +3°C° 0 mm 1 mps 619 mmHg 74%
    02:00 +3°C° 0 mm 1 mps 619 mmHg 76%
    03:00 +2°C° 0 mm 1 mps 619 mmHg 79%
    04:00 +2°C° 0.1 mm 1 mps 619 mmHg 80%
    05:00 +3°C° 0.1 mm 1 mps 619 mmHg 81%
    06:00 +2°C° 0.1 mm 0 mps 619 mmHg 82%
    07:00 +3°C° 0.7 mm 1 mps 619 mmHg 82%
    08:00 +4°C° 0.7 mm 1 mps 620 mmHg 82%
    09:00 +4°C° 0.7 mm 1 mps 620 mmHg 82%
    10:00 +4°C° 1.1 mm 1 mps 620 mmHg 83%
    11:00 +4°C° 1.1 mm 1 mps 620 mmHg 83%
    12:00 +4°C° 1.1 mm 1 mps 620 mmHg 84%
    13:00 +4°C° 1 mm 1 mps 619 mmHg 84%
    14:00 +5°C° 1 mm 1 mps 619 mmHg 84%
    15:00 +5°C° 1 mm 1 mps 619 mmHg 85%
    16:00 +4°C° 0.5 mm 1 mps 619 mmHg 84%
    17:00 +4°C° 0.5 mm 1 mps 619 mmHg 84%
    18:00 +4°C° 0.5 mm 1 mps 619 mmHg 84%
    19:00 +3°C° 0 mm 1 mps 619 mmHg 85%
    20:00 +1°C° 0 mm 2 mps 619 mmHg 86%
    21:00 +1°C° 0 mm 2 mps 619 mmHg 88%
    22:00 +1°C° 0.1 mm 2 mps 620 mmHg 88%
    23:00 +1°C° 0.1 mm 2 mps 620 mmHg 88%

    29 March, Friday

    Time Temperature Precipitation Wind Pressure Humidity
    00:00 +1°C° 0.1 mm 2 mps 620 mmHg 89%
    01:00 +1°C° 0.8 mm 2 mps 620 mmHg 89%
    02:00 +1°C° 0.8 mm 2 mps 620 mmHg 89%
    03:00 -1°C° 0.8 mm 2 mps 620 mmHg 89%
    04:00 -1°C° 1.7 mm 2 mps 620 mmHg 89%
    05:00 -1°C° 1.7 mm 2 mps 620 mmHg 90%
    06:00 -1°C° 1.7 mm 2 mps 620 mmHg 90%
    07:00 -1°C° 1.2 mm 2 mps 621 mmHg 89%
    08:00 -1°C° 1.2 mm 2 mps 621 mmHg 89%
    09:00 -1°C° 1.2 mm 2 mps 621 mmHg 88%
    10:00 +1°C° 0.3 mm 2 mps 621 mmHg 87%
    11:00 +1°C° 0.3 mm 2 mps 621 mmHg 86%
    12:00 +2°C° 0.3 mm 2 mps 621 mmHg 85%
    13:00 +3°C° 0.1 mm 2 mps 620 mmHg 84%
    14:00 +4°C° 0.1 mm 1 mps 620 mmHg 83%
    15:00 +5°C° 0.1 mm 1 mps 620 mmHg 83%
    16:00 +4°C° 0.1 mm 1 mps 620 mmHg 82%
    17:00 +3°C° 0.1 mm 2 mps 620 mmHg 81%
    18:00 +2°C° 0.1 mm 2 mps 619 mmHg 80%
    19:00 +2°C° 0.1 mm 2 mps 619 mmHg 82%
    20:00 +1°C° 0.1 mm 2 mps 619 mmHg 84%
    21:00 +1°C° 0.1 mm 2 mps 619 mmHg 86%
    22:00 +1°C° 0.1 mm 2 mps 619 mmHg 85%
    23:00 +1°C° 0.1 mm 2 mps 619 mmHg 85%
    Show more